Miscellaneous Local Product
Issued by NWS North Platte, NE

Home | Current Version | Previous Version | Graphics & Text | Print | Product List | Glossary On
Versions: 1 2 3 4 5 6 7 8 9 10 11 12 13 14 15 16 17 18 19 20 21 22 23 24 25 26 27 28 29 30 31 32 33 34 35 36 37 38 39 40 41 42 43 44 45 46 47 48 49 50
000
AXUS43 KLBF 211210
MISLBF


WESTERN AND NORTH CENTRAL NEBRASKA HOURLY WEATHER ROUNDUP
NATIONAL WEATHER SERVICE NORTH PLATTE NE
600 AM CST FRI NOV 21 2014

***STATIONS NOT REPORTING VARIABLES SUCH AS SKY/WEATHER OR
PRESSURE ARE PROVIDED BY THE NEBRASKA DEPARTMENT OF
ROADS...RAWS...AND APRS NETWORKS...AND ARE NOT UNDER
NATIONAL WEATHER SERVICE QUALITY CONTROL***

...OBSERVATIONS IN AND NEAR THE EASTERN PANHANDLE OF NEBRASKA...

CITY           SKY/WX    TMP DP  RH WIND       PRES   REMARKS
PINE RIDGE     CLOUDY    28  20  71 W6        29.87S WCI  22
CHADRON        MOCLDY    24  20  84 S5        29.88S WCI  18
ALLIANCE       MOCLDY    26  19  74 S5        29.90S WCI  20
SIDNEY         PTCLDY    29  20  69 SW12      29.94S WCI  19
WHITECLAY        N/A     25  18  74 CALM        N/A
LISCO            N/A     29  18  64 CALM        N/A
BIG SPRINGS      N/A     28  22  78 SW3         N/A
LEWELLEN         N/A     16  12  86 CALM        N/A
$$

...OBSERVATIONS IN NORTH CENTRAL NEBRASKA...

CITY           SKY/WX    TMP DP  RH WIND       PRES   REMARKS
VALENTINE      PTCLDY    25  19  78 CALM      29.90F
THEDFORD       MOCLDY    28  22  80 SW12      29.95F WCI  18
AINSWORTH      PTCLDY    24  19  81 S13       29.92F WCI  13
O`NEILL        CLEAR     25  20  82 S14       30.00F WCI  13
ORD            PTCLDY    17  14  88 SE6       30.05F WCI   9
BROKEN BOW     MOCLDY    23  18  81 S13       30.02F WCI  11
BROWNLEE         N/A     24  21  85 S10         N/A  WCI  14
BREWSTER         N/A     27  23  85 S5          N/A  WCI  22
COMSTOCK         N/A     27  23  84 S12         N/A  WCI  17
$$

...OBSERVATIONS IN SOUTHWEST NEBRASKA AND FAR NORTHEAST COLORADO...

CITY           SKY/WX    TMP DP  RH WIND       PRES   REMARKS
WRAY           CLOUDY    31  23  72 CALM      29.97S
HOLYOKE        FAIR      30  21  69 W6        29.97R WCI  24
IMPERIAL       CLOUDY    32  23  69 S6        29.98S WCI  26
OGALLALA       MOCLDY    20  18  90 CALM      29.97S
NORTH PLATTE   MOCLDY    19  15  84 CALM      30.01S
MCCOOK         MOCLDY    20  16  84 E5        30.04S WCI  13
LEXINGTON      MOCLDY    25  21  83 SE6       30.06S WCI  18
PAXTON           N/A     17  14  86 CALM        N/A
GOTHENBURG       N/A     28  22  78 SE5         N/A  WCI  23
CALLAWAY         N/A     22  19  87 S9          N/A  WCI  12
$$

...SOME WEATHER OBSERVATIONS FROM AROUND THE REGION...

CITY           SKY/WX    TMP DP  RH WIND       PRES   REMARKS
DENVER         PTCLDY    32  22  66 SW9       29.94S WCI  24
LARAMIE        CLOUDY    28  18  66 W6        29.96F WCI  22
CHEYENNE       CLOUDY    39  19  44 W10       29.93F WCI  32
SCOTTSBLUFF    CLOUDY    27  22  81 S3        29.92R
RAPID CITY     MOCLDY    33  23  66 NW8       29.82S WCI  26
PIERRE         PTCLDY    20  16  84 SE6       29.86F WCI  12
WINNER         FAIR      31  21  66 SW28G36   29.86F WCI  17
SIOUX FALLS    PTCLDY    17  12  80 S15       30.09F WCI   2
OMAHA          PTCLDY    18  13  80 SE9       30.23S WCI   7
GRAND ISLAND   CLEAR     21  15  78 S9        30.12S WCI  11
KANSAS CITY    PTCLDY    24  16  71 E10       30.23S WCI  14
WICHITA        CLOUDY    34  23  64 E8        30.10F WCI  27
HAYS           MOCLDY    21  12  68 NE8       30.09S WCI  12
LIBERAL        PTCLDY    27  21  80 NE3       30.06R
GOODLAND       CLOUDY    33  28  81 S9        30.00S WCI  25
$$



USA.gov is the U.S. government's official web portal to all federal, state and local government web resources and services.